| time (UTC) | temp F | wind direction | speed knots | gust knots | rain 1hr in | rain 24hr in | rain mn in | humidity % | barometer mb |
| 20260510180059 | 70 | 129 | 5.2 | 18.2 | 0.00 | 0.00 | 0.00 | 30 | 1014.8 |
| 20260510174603 | 69 | 167 | 7.8 | 14.8 | 0.00 | 0.00 | 0.00 | 30 | 1015.1 |
| 20260510173054 | 68 | 199 | 7.8 | 15.6 | 0.00 | 0.00 | 0.00 | 33 | 1015.2 |
| 20260510171618 | 68 | 192 | 7.8 | 14.8 | 0.00 | 0.00 | 0.00 | 34 | 1015.5 |
| 20260510170054 | 66 | 173 | 7.8 | 12.2 | 0.00 | 0.00 | 0.00 | 37 | 1015.7 |
| 20260510164601 | 64 | 209 | 7.8 | 13.0 | 0.00 | 0.00 | 0.00 | 38 | 1015.8 |
| 20260510163102 | 63 | 163 | 6.1 | 13.0 | 0.00 | 0.00 | 0.00 | 41 | 1016.0 |
| 20260510161551 | 62 | 192 | 6.1 | 10.4 | 0.00 | 0.00 | 0.00 | 41 | 1016.0 |
| 20260510160052 | 61 | 202 | 5.2 | 10.4 | 0.00 | 0.00 | 0.00 | 43 | 1016.2 |
| 20260510154601 | 60 | 175 | 6.1 | 9.6 | 0.00 | 0.00 | 0.00 | 44 | 1016.4 |
| 20260510153058 | 59 | 163 | 4.3 | 8.7 | 0.00 | 0.00 | 0.00 | 48 | 1016.5 |
| 20260510151559 | 57 | 163 | 7.0 | 10.4 | 0.00 | 0.00 | 0.00 | 54 | 1016.7 |
| 20260510150057 | 55 | 141 | 4.3 | 8.7 | 0.00 | 0.00 | 0.00 | 59 | 1016.7 |
| 20260510144602 | 52 | 132 | 3.5 | 7.0 | 0.00 | 0.00 | 0.00 | 67 | 1016.7 |
| 20260510143051 | 50 | 88 | 1.7 | 5.2 | 0.00 | 0.00 | 0.00 | 72 | 1016.8 |
| 20260510141553 | 49 | 33 | 2.6 | 5.2 | 0.00 | 0.00 | 0.00 | 74 | 1017.1 |
| 20260510140057 | 47 | 33 | 0.0 | 2.6 | 0.00 | 0.00 | 0.00 | 77 | 1017.1 |
| 20260510134552 | 46 | 33 | 0.0 | 3.5 | 0.00 | 0.00 | 0.00 | 80 | 1017.0 |
| 20260510133052 | 44 | 0 | 0.9 | 2.6 | 0.00 | 0.00 | 0.00 | 83 | 1017.0 |
| 20260510131551 | 42 | 0 | 0.0 | 0.9 | 0.00 | 0.00 | 0.00 | 85 | 1017.1 |
| 20260510130057 | 40 | 0 | 0.0 | 2.6 | 0.00 | 0.00 | 0.00 | 88 | 1017.3 |
| 20260510124552 | 38 | 0 | 0.9 | 3.5 | 0.00 | 0.00 | 0.00 | 87 | 1017.3 |
| 20260510123056 | 37 | 0 | 0.9 | 2.6 | 0.00 | 0.00 | 0.00 | 87 | 1017.3 |
| 20260510121555 | 37 | 112 | 2.6 | 5.2 | 0.00 | 0.00 | 0.00 | 86 | 1017.3 |
| 20260510114602 | 37 | 112 | 1.7 | 3.5 | 0.00 | 0.00 | 0.00 | 85 | 1017.4 |
| 20260510113056 | 37 | 112 | 1.7 | 3.5 | 0.00 | 0.00 | 0.00 | 85 | 1017.5 |
| 20260510111551 | 38 | 112 | 2.6 | 3.5 | 0.00 | 0.00 | 0.00 | 85 | 1017.4 |
| 20260510110056 | 39 | 112 | 1.7 | 2.6 | 0.00 | 0.00 | 0.00 | 84 | 1017.5 |
| 20260510104552 | 39 | 112 | 1.7 | 3.5 | 0.00 | 0.00 | 0.00 | 83 | 1017.5 |
| 20260510103053 | 40 | 112 | 1.7 | 2.6 | 0.00 | 0.00 | 0.00 | 82 | 1017.6 |
| 20260510101603 | 40 | 112 | 0.9 | 3.5 | 0.00 | 0.00 | 0.00 | 81 | 1017.7 |
| 20260510094556 | 41 | 112 | 0.9 | 2.6 | 0.00 | 0.00 | 0.00 | 82 | 1017.5 |
| 20260510093056 | 41 | 0 | 0.0 | 3.5 | 0.00 | 0.00 | 0.00 | 82 | 1017.6 |
| 20260510091558 | 42 | 112 | 0.0 | 2.6 | 0.00 | 0.00 | 0.00 | 81 | 1017.8 |
| 20260510090053 | 42 | 0 | 0.0 | 0.9 | 0.00 | 0.00 | 0.00 | 81 | 1017.8 |
| 20260510084609 | 42 | 112 | 0.9 | 2.6 | 0.00 | 0.00 | 0.00 | 79 | 1017.8 |
| 20260510083057 | 43 | 112 | 2.6 | 3.5 | 0.00 | 0.00 | 0.00 | 78 | 1017.9 |
| 20260510081559 | 44 | 112 | 0.9 | 3.5 | 0.00 | 0.00 | 0.00 | 78 | 1018.0 |
| 20260510080100 | 45 | 112 | 0.9 | 3.5 | 0.00 | 0.00 | 0.00 | 77 | 1018.0 |
| 20260510074554 | 46 | 112 | 0.9 | 2.6 | 0.00 | 0.00 | 0.00 | 77 | 1017.9 |
| 20260510073059 | 46 | 112 | 1.7 | 2.6 | 0.00 | 0.00 | 0.00 | 77 | 1018.0 |
| 20260510071557 | 47 | 112 | 1.7 | 3.5 | 0.00 | 0.00 | 0.00 | 77 | 1018.0 |
| 20260510064551 | 47 | 0 | 0.0 | 0.0 | 0.00 | 0.00 | 0.00 | 78 | 1018.0 |
| 20260510063051 | 48 | 0 | 0.0 | 0.0 | 0.00 | 0.00 | 0.00 | 78 | 1017.9 |
| 20260510061551 | 48 | 0 | 0.0 | 3.5 | 0.00 | 0.00 | 0.00 | 76 | 1018.1 |
| 20260510060052 | 48 | 112 | 2.6 | 5.2 | 0.00 | 0.00 | 0.00 | 77 | 1018.1 |
| 20260510054549 | 48 | 112 | 3.5 | 7.0 | 0.00 | 0.00 | 0.00 | 74 | 1018.0 |
| 20260510053053 | 50 | 112 | 5.2 | 7.0 | 0.00 | 0.00 | 0.00 | 73 | 1018.0 |
| 20260510051605 | 51 | 112 | 2.6 | 6.1 | 0.00 | 0.00 | 0.00 | 70 | 1017.9 |
| 20260510050059 | 51 | 112 | 2.6 | 7.8 | 0.00 | 0.00 | 0.00 | 68 | 1017.8 |
| 20260510044552 | 51 | 112 | 2.6 | 6.1 | 0.00 | 0.00 | 0.00 | 67 | 1018.0 |
| 20260510043049 | 52 | 112 | 2.6 | 5.2 | 0.00 | 0.00 | 0.00 | 64 | 1018.0 |
| 20260510041551 | 53 | 112 | 3.5 | 7.0 | 0.00 | 0.00 | 0.00 | 59 | 1017.9 |
| 20260510040103 | 53 | 0 | 0.0 | 0.0 | 0.00 | 0.00 | 0.00 | 57 | 1017.7 |
| 20260510034550 | 54 | 0 | 0.0 | 2.6 | 0.00 | 0.00 | 0.00 | 53 | 1017.5 |
| 20260510033056 | 55 | 201 | 0.9 | 3.5 | 0.00 | 0.00 | 0.00 | 52 | 1017.3 |
| 20260510031550 | 56 | 0 | 0.0 | 0.0 | 0.00 | 0.00 | 0.00 | 52 | 1017.1 |
| 20260510030056 | 57 | 0 | 0.9 | 2.6 | 0.00 | 0.00 | 0.00 | 48 | 1016.8 |
| 20260510024552 | 60 | 201 | 1.7 | 3.5 | 0.00 | 0.00 | 0.00 | 45 | 1016.6 |
| 20260510023049 | 62 | 201 | 1.7 | 3.5 | 0.00 | 0.00 | 0.00 | 43 | 1016.7 |
| 20260510021641 | 63 | 0 | 0.9 | 2.6 | 0.00 | 0.00 | 0.00 | 41 | 1016.7 |
| 20260510020051 | 64 | 201 | 1.7 | 3.5 | 0.00 | 0.00 | 0.00 | 41 | 1016.8 |
| 20260510014559 | 64 | 0 | 1.7 | 4.3 | 0.00 | 0.00 | 0.00 | 40 | 1016.7 |
| 20260510013102 | 64 | 201 | 2.6 | 5.2 | 0.00 | 0.00 | 0.00 | 39 | 1016.7 |
| 20260510011559 | 65 | 202 | 0.0 | 3.5 | 0.00 | 0.00 | 0.00 | 39 | 1016.6 |
| 20260510010055 | 65 | 0 | 0.0 | 6.1 | 0.00 | 0.00 | 0.00 | 39 | 1016.7 |
| 20260510004550 | 65 | 213 | 1.7 | 5.2 | 0.00 | 0.00 | 0.00 | 39 | 1016.8 |
| 20260510003050 | 65 | 0 | 0.0 | 3.5 | 0.00 | 0.00 | 0.00 | 39 | 1016.7 |
| 20260510001551 | 65 | 0 | 0.0 | 7.8 | 0.00 | 0.00 | 0.00 | 41 | 1016.8 |
| 20260510000050 | 65 | 155 | 0.0 | 4.3 | 0.00 | 0.00 | 0.00 | 42 | 1016.8 |
| 20260509234548 | 64 | 153 | 1.7 | 6.1 | 0.00 | 0.00 | 0.00 | 42 | 1016.8 |
| 20260509233052 | 64 | 175 | 2.6 | 7.0 | 0.00 | 0.00 | 0.00 | 42 | 1016.7 |
| 20260509231550 | 64 | 168 | 4.3 | 8.7 | 0.00 | 0.00 | 0.00 | 42 | 1016.8 |
| 20260509230055 | 64 | 211 | 6.1 | 13.9 | 0.00 | 0.00 | 0.00 | 42 | 1016.9 |
| 20260509224549 | 64 | 178 | 3.5 | 12.2 | 0.00 | 0.00 | 0.00 | 40 | 1017.0 |
| 20260509223054 | 64 | 0 | 1.7 | 7.0 | 0.00 | 0.00 | 0.00 | 39 | 1016.9 |
| 20260509221550 | 65 | 218 | 3.5 | 9.6 | 0.00 | 0.00 | 0.00 | 39 | 1017.0 |
| 20260509220053 | 64 | 235 | 3.5 | 9.6 | 0.00 | 0.00 | 0.00 | 40 | 1017.0 |
| 20260509214552 | 64 | 0 | 0.0 | 7.8 | 0.00 | 0.00 | 0.00 | 40 | 1017.2 |
| 20260509213105 | 64 | 238 | 6.1 | 10.4 | 0.00 | 0.00 | 0.00 | 39 | 1017.3 |
| 20260509211601 | 64 | 281 | 4.3 | 12.2 | 0.00 | 0.00 | 0.00 | 38 | 1017.4 |
| 20260509210056 | 65 | 0 | 3.5 | 10.4 | 0.00 | 0.00 | 0.00 | 37 | 1017.3 |
| 20260509204552 | 63 | 209 | 6.1 | 12.2 | 0.00 | 0.00 | 0.00 | 40 | 1017.5 |
| 20260509203100 | 63 | 228 | 7.0 | 11.3 | 0.00 | 0.00 | 0.00 | 40 | 1017.5 |
| 20260509201550 | 63 | 205 | 0.9 | 7.8 | 0.00 | 0.00 | 0.00 | 40 | 1017.4 |
| 20260509200054 | 64 | 0 | 7.0 | 13.0 | 0.00 | 0.00 | 0.00 | 38 | 1017.3 |
| 20260509194600 | 63 | 222 | 1.7 | 9.6 | 0.00 | 0.00 | 0.00 | 40 | 1017.3 |
| 20260509193057 | 63 | 189 | 2.6 | 7.8 | 0.00 | 0.00 | 0.00 | 41 | 1017.4 |
| 20260509191606 | 62 | 232 | 4.3 | 9.6 | 0.00 | 0.00 | 0.00 | 41 | 1017.4 |
| 20260509190057 | 61 | 221 | 0.9 | 4.3 | 0.00 | 0.00 | 0.00 | 41 | 1017.4 |
| 20260509184600 | 61 | 0 | 0.0 | 4.3 | 0.00 | 0.00 | 0.00 | 40 | 1017.4 |
| 20260509183058 | 61 | 0 | 1.7 | 6.1 | 0.00 | 0.00 | 0.00 | 39 | 1017.4 |
| 20260509181555 | 61 | 0 | 0.0 | 4.3 | 0.00 | 0.00 | 0.00 | 40 | 1017.4 |